Regional Weather Roundup
Issued by NWS Green Bay, WI

Home | Current Version | Previous Version | Graphics & Text | Print | Product List | Glossary Off
Versions: 1 2 3 4 5 6 7 8 9 10 11 12 13 14 15 16 17 18 19 20 21 22 23 24 25 26 27 28 29 30 31 32 33 34 35 36 37 38 39 40 41 42 43 44 45 46 47 48 49 50

000
ASUS43 KGRB 232311
RWRGRB

NORTH-CENTRAL AND NORTHEAST WISCONSIN REGIONAL WEATHER ROUNDUP
NATIONAL WEATHER SERVICE GREEN BAY WI
600 PM CDT THU MAR 23 2017

WIZ005-009-010>012-018-019-240000-
NORTH CENTRAL WISCONSIN

CITY           SKY/WX    TMP DP  RH WIND       PRES   REMARKS
IRONWOOD       CLOUDY    37  21  52 SW9       29.93F
MANITOWISH WTR DRIZZLE   34  23  64 SE10G17   29.84F
ARBOR VITAE    LGT RAIN  37  29  74 SE14      29.86F
EAGLE RIVER    RAIN      35  21  56 S9        29.99R
LAND O LAKES   CLOUDY    36  20  52 S8G20     29.97S
RHINELANDER    LGT RAIN  38  23  55 S7        29.99R
PHILLIPS       CLOUDY    35  26  69 S14G22    29.88F
ANTIGO         CLOUDY    36  24  61 SE7       29.99R
TOMAHAWK       LGT RAIN  37  21  52 S3        29.98R
MERRILL        LGT RAIN  38  21  49 S5        30.00R
$$

WIZ013-073-240000-
NORTHEAST WISCONSIN

CITY           SKY/WX    TMP DP  RH WIND       PRES   REMARKS
IRON MOUNTAIN  CLOUDY    34  22  61 SE9       30.00F
MARINETTE        N/A    N/A N/A N/A MISG        N/A
OCONTO         CLOUDY    34  26  71 SE10      30.04F
$$

WIZ017-030-035>037-045-240000-
CENTRAL WISCONSIN

CITY           SKY/WX    TMP DP  RH WIND       PRES   REMARKS
MEDFORD        CLOUDY    36  24  60 SE8       29.95F
WAUSAU         CLOUDY    39  21  48 S7        30.00R
MOSINEE        CLOUDY    39  21  48 S9        30.01R
MARSHFIELD     LGT RAIN  39  24  55 S9        29.98R
WISC RAPIDS    CLOUDY    43  22  43 S5        30.03R
STEVENS POINT  CLOUDY    39  21  48 S5        30.04R
WAUPACA        CLOUDY    41  28  58 E13G20    29.97S
SHAWANO        CLOUDY    39  27  62 SE13      30.01F
CLINTONVILLE   CLOUDY    39  27  60 SE13      29.99F
WAUTOMA        CLOUDY    44  21  40 SE20      29.94F
$$

WIZ038-039-048-051-240000-
FOX VALLEY

CITY           SKY/WX    TMP DP  RH WIND       PRES   REMARKS
NWS GREEN BAY  CLOUDY    37  28  70 SE16      30.01F
APPLETON       CLOUDY    37  25  60 SE14G23   29.98F
OSHKOSH        PTSUNNY   38  27  64 SE17      29.95F
FOND DU LAC    CLOUDY    40  26  57 SE23G29   29.95F
$$

WIZ022-050-052-240000-
EAST CENTRAL WISCONSIN

CITY           SKY/WX    TMP DP  RH WIND       PRES   REMARKS
EPHRAIM        CLOUDY    35  24  66 S12G24    30.07F
WASHINGTON ISL CLOUDY    35  24  63 S15G22    30.09F
STURGEON BAY   CLOUDY    35  25  66 S17G23    30.07F
MANITOWOC      CLOUDY    36  27  69 SE17G25   30.06F
SHEBOYGAN      CLOUDY    36  26  67 SE15G23   30.07F
$$

LMZ563-521-522-541>543-240000-
LAKESHORE

STATION/POSITION TIME  TEMP    WIND        PRES    VSBY  WAVE
                       AIR SEA DIR/SP/G                  HT/PER
                 (UTC) (F)     (DEG/KT/KT) (MB)    (MI)  (FT/S)
SHEBOYGAN LKSHOR 2300   36     160/ 20/ 22 1018.6F
KEWAUNEE LKSHORE 2248   36     170/ 20/ 25 1019.0F
NORTHPORT PIER   2230   36     160/ 10/ 17 1019.6F
CHAMBERS ISLAND  2240   35     160/  7/ 13 1018.3F
MENOMINEE LKSHOR 2248   35      50/ 16/ 21 1017.4F
$$



USA.gov is the U.S. government's official web portal to all federal, state and local government web resources and services.